Location: Mahannah Oil Field
(37.4664°N, 96.6003°W)
Time: 09:38:39
(UTC+00:00)

Transit 2A Rocket - Pass Details

Date: 27 January 2021
Orbit: 594 x 909 km, 66.7° (Epoch: 03 March)

Event Time Altitude Azimuth Distance (km) Brightness Sun altitude
Rises 02:35:15 0° 338° (NNW) 2,885 8.3 -33.9°
Enters shadow 02:36:05 - 340° (NNW) 2,554 8.0 -34.1°
Reaches altitude 10° 02:37:37 10° 345° (NNW) 1,954 - -34.4°
Maximum altitude 02:41:47 44° 58° (ENE) 826 - -35.2°
Drops below altitude 10° 02:45:54 10° 131° (SE) 1,926 - -36.0°
Sets 02:48:13 0° 138° (SE) 2,839 - -36.5°
